Regional Weather Roundup
Issued by NWS

Home | Current Version | Previous Version | Graphics & Text | Print | Product List | Glossary Off
Versions: 1 2 3 4 5 6 7 8 9 10 11 12 13 14 15 16 17 18 19 20 21 22 23 24 25 26 27 28 29 30 31 32 33 34 35 36 37 38 39 40 41 42 43 44 45 46 47 48 49 50

000
ASUS43 KMKX 092200
RWRWI

WISCONSIN REGIONAL WEATHER ROUNDUP
NATIONAL WEATHER SERVICE MILWAUKEE/SULLIVAN WI
400 PM CST FRI DEC 09 2016

NOTE: "FAIR" INDICATES FEW OR NO CLOUDS BELOW 12,000 FEET WITH NO
SIGNIFICANT WEATHER AND/OR OBSTRUCTIONS TO VISIBILITY.

WIZ001-002-006>008-014>016-023>028-092300-
NORTHWEST WISCONSIN

CITY           SKY/WX    TMP DP  RH WIND       PRES   REMARKS
SUPERIOR ARPT  CLOUDY    13   2  62 NW8       30.50S WCI   2
ASHLAND        CLOUDY    13   4  67 W12       30.47R WCI  -1
HAYWARD        CLOUDY    15   5  64 NW6       30.43S WCI   6
SIREN          FLURRIES  16   9  75 NW7       30.46S WCI   6
CUMBERLAND     FLURRIES  18   9  68 W8        30.43S WCI   7
RICE LAKE      CLOUDY    17   9  70 SW9       30.46S WCI   6
CHETEK         CLOUDY    17   9  70 W7        30.46S WCI   8
LADYSMITH      CLOUDY    18  11  74 W5        30.44S WCI  11
EAU CLAIRE     PTCLDY    16   9  74 W8        30.47S WCI   5
MENOMONIE      FLURRIES  18  11  75 SW6       30.48S WCI   9
NEW RICHMOND   CLOUDY    18   8  66 W7        30.47S WCI   8
OSCEOLA        CLOUDY    18   9  67 W9        30.51S WCI   7
$$

WIZ003>005-009-010-017-018-092300-
NORTH CENTRAL WISCONSIN

CITY           SKY/WX    TMP DP  RH WIND       PRES   REMARKS
MANITOWISH WTR CLOUDY    13   6  72 W6        30.37S WCI   4
ARBOR VITAE    CLOUDY    17   8  69 W3        30.37S
WOODRUFF       CLOUDY    17   8  69 W3        30.37S
RHINELANDER    CLOUDY    16   6  65 W7        30.38S WCI   6
EAGLE RIVER    CLOUDY    14   5  67 NW5       30.36S WCI   6
LAND O LAKES   CLOUDY    14   7  72 W5        30.38R WCI   6
PHILLIPS       CLOUDY    15   9  76 W6        30.39S WCI   6
TOMAHAWK       CLOUDY    16   8  73 W6        30.40S HAZE    WCI   7
MEDFORD        FLURRIES  15  10  77 W6        30.40S WCI   7
MERRILL        CLOUDY    18   7  62 W9        30.42S WCI   6
$$

WIZ029-030-035-036-043>047-092300-
CENTRAL WISCONSIN

CITY           SKY/WX    TMP DP  RH WIND       PRES   REMARKS
WAUSAU         CLOUDY    17   8  67 W9        30.42R WCI   6
MOSINEE        MOCLDY    18   9  68 W8        30.43S WCI   7
MARSHFIELD     CLOUDY    18   9  68 W12       30.42S WCI   5
STEVENS POINT  PTCLDY    18   7  62 W6        30.45S WCI   9
WAUPACA        CLEAR     23   8  52 W8        30.46S WCI  14
WAUTOMA        CLEAR     21   8  57 NW8       30.47S WCI  11
WISC RAPIDS    PTCLDY    19   8  62 NW7       30.46S WCI  10
CAMP DOUGLAS   NOT AVBL
$$

WIZ011>013-019>022-031-037>040-048>050-092300-
NORTHEAST WISCONSIN

CITY           SKY/WX    TMP DP  RH WIND       PRES   REMARKS
ANTIGO         CLOUDY    16   6  65 NW8       30.39R WCI   5
SHAWANO        CLOUDY    25   8  49 NW9       30.43S WCI  15
OCONTO         CLOUDY    24   8  50 NW7       30.42R WCI  15
STURGEON BAY   CLOUDY    24   8  50 NW10      30.41R WCI  14
GREEN BAY      CLOUDY    26   9  48 W14       30.43R WCI  14
MANITOWOC      NOT AVBL
APPLETON       PTCLDY    21   7  53 MISG      30.42R
CLINTONVILLE   PTCLDY    21   7  53 NW9       30.44R WCI  11
OSHKOSH        CLEAR     21   7  54 NW8       30.45R WCI  11
$$

WIZ032>034-041-042-053>061-092300-
SOUTHWEST WISCONSIN

CITY           SKY/WX    TMP DP  RH WIND       PRES   REMARKS
LA CROSSE      PTCLDY    22  10  60 NW10      30.51R WCI  11
SPARTA         CLEAR     22  11  62 W8        30.49R WCI  13
VIROQUA        CLEAR     18   9  69 W6        30.46S WCI  10
BOSCOBEL       CLEAR     23  10  57 W7        30.52R WCI  15
PRAIRIE DU CHI CLEAR     21  11  65 SW7       30.52F WCI  12
PLATTEVILLE    CLEAR     21  14  73 W8        30.50R WCI  12
$$

WIZ056-057-062-063-064-067-068-092300-
SOUTH CENTRAL WISCONSIN

CITY           SKY/WX    TMP DP  RH WIND       PRES   REMARKS
REEDSBURG      CLEAR     22   9  57 W7        30.46F WCI  14
BARABOO/DELLS  CLEAR     23   8  51 NW6       30.46S WCI  16
LONE ROCK      NOT AVBL
MINERAL POINT  CLEAR     23  14  68 W6        30.47S WCI  16
MADISON        PTCLDY    22   8  55 W6        30.48S WCI  14
MIDDLETON      PTCLDY    25  13  60 NW6       30.47S WCI  18
WATERTOWN      CLEAR     23  11  61 W6        30.47S WCI  15
MONROE         CLEAR     21  14  73 W6        30.47S WCI  14
JANESVILLE     PTCLDY    25  14  63 W9        30.49R WCI  15
$$

WIZ051-052-058>065-066-070>072-092300-
SOUTHEAST WISCONSIN

CITY           SKY/WX    TMP DP  RH WIND       PRES   REMARKS
MILWAUKEE      PTCLDY    25   6  44 NW12      30.47R WCI  14
WAUKESHA       PTCLDY    23  10  58 NW14      30.46S WCI  11
MILWAUKEE/TIMM CLEAR     25   5  42 NW10      30.48R WCI  15
RACINE         PTCLDY    25   7  46 W9        30.49R WCI  15
BURLINGTON     CLEAR     29  15  56 NW9       30.48S WCI  20
KENOSHA        PTCLDY    25  10  53 W9        30.48R WCI  15
FOND DU LAC    CLEAR     22   7  52 W12       30.46R WCI  10
SHEBOYGAN      CLEAR     23   6  48 NW12G21   30.44R WCI  12
WEST BEND      CLEAR     23  10  58 W10G17    30.45R WCI  12
JUNEAU         CLEAR     22   8  56 W7        30.47S WCI  13
$$

LSZ147-162-092300-
LAKE SUPERIOR

STATION/POSITION TIME  TEMP    WIND        PRES    WAVE
                       AIR SEA DIR/SP/G            HT/PER
                 (UTC) (F)     (DEG/KT/KT) (MB)    (FT/S)
DEVILS ISLAND    2100   15     260/ 15/ 19 1032.5R
PORT WING        2140   15     280/ 18/ 23 1031.8S
SAXON HARBOR     2140   17     280/  6/ 12 1031.5R
$$

LMZ867-665-643>646-092300-
LAKE MICHIGAN

STATION/POSITION TIME  TEMP    WIND        PRES    WAVE
                       AIR SEA DIR/SP/G            HT/PER
                 (UTC) (F)     (DEG/KT/KT) (MB)    (FT/S)
CHAMBERS ISLAND  2140   25     290/  7/ 13 1028.4R
NORTHPORT PIER   2149   26     290/  8/ 16 1028.4R
SISTER BAY       2150   27     290/ 19/ 22   N/A
ALGOMA LAKESHORE 2036          300/  6/ 10   N/A
KEWAUNEE LAKESHO 2130   25     290/  9/ 14 1029.2R
SHEBOYGAN LAKESH 2100   24     290/ 14/ 19 1031.6R
PORT WASHINGTON  2140   24     270/  9/ 15 1032.5R
MILWAUKEE LAKESH 2130   25     320/ 10/ 12   N/A
KENOSHA   LAKESH 2100   26     280/  8/ 15 1031.8
$$

TC  - TEMPERATURE IN CELSIUS
VSB - VISIBILITY IN STATUTE MILES
WCI - WIND CHILL INDEX
HX  - HEAT INDEX





USA.gov is the U.S. government's official web portal to all federal, state and local government web resources and services.